This demonstration page uses our WeatherBlox Daily Observations layout. Learn more.

Left ArrowRight Arrow

36.17497, -115.13722

Hourly Observations for April 19, 2020

Temp ( °F °C ) Dew Point ( °F °C ) Humidity (%) Winds ( mph kmh ) Pressure ( in mb ) Visibility ( mi km ) Precip ( " mm )
12:53 am 00:53 Clear 61 16.1 37 2.8 41 41 N N/A 29.93 1014 10 16 N/A
1:53 am 01:53 Clear 61 16.1 38 3.3 43 43 S 5 7 29.93 1013 10 16 N/A
2:53 am 02:53 Clear 62 16.7 37 2.8 40 40 N N/A 29.91 1013 10 16 N/A
3:53 am 03:53 Clear 57 13.9 37 2.8 47 47 N N/A 29.92 1013 10 16 N/A
4:53 am 04:53 Clear 56 13.3 38 3.3 51 51 NNE 3 6 29.93 1013 10 16 N/A
5:53 am 05:53 Clear 55 12.8 39 3.9 55 55 NNW 3 6 29.94 1014 10 16 N/A
6:53 am 06:53 Sunny 56 13.3 38 3.3 51 51 NNW 5 7 29.96 1015 10 16 N/A
7:53 am 07:53 Sunny 62 16.7 38 3.3 41 41 N 5 7 29.97 1015 10 16 N/A
8:53 am 08:53 Sunny 64 17.8 39 3.9 40 40 N N/A 29.98 1015 10 16 N/A
9:53 am 09:53 Sunny 68 20 41 5 38 38 VRB 3 6 29.98 1015 10 16 N/A
10:53 am 10:53 Sunny 70 21.1 41 5 35 35 SE 7 11 29.97 1015 10 16 N/A
11:53 am 11:53 Sunny 72 22.2 41 5 33 33 ESE 8 13 29.95 1014 10 16 N/A
12:53 pm 12:53 Sunny 77 25 38 3.3 24 24 ESE 14 22 29.91 1013 10 16 N/A
1:53 pm 13:53 Sunny 78 25.6 34 1.1 20 20 SE 16 26 29.88 1012 10 16 N/A
2:53 pm 14:53 Mostly Sunny 80 26.7 33 0.6 18 18 S 10 17 29.85 1011 10 16 N/A
3:53 pm 15:53 Sunny 81 27.2 29 -1.7 15 15 SSW 14 22 29.82 1010 10 16 N/A
4:53 pm 16:53 Sunny 80 26.7 27 -2.8 14 14 WSW 17 28 29.80 1009 10 16 N/A
5:53 pm 17:53 Sunny 79 26.1 23 -5 12 12 SSW 20 31 29.80 1009 10 16 N/A
6:53 pm 18:53 Sunny 77 25 22 -5.6 13 13 SW 15 24 29.81 1010 10 16 N/A
7:53 pm 19:53 Clear 74 23.3 25 -3.9 16 16 SSW 14 22 29.82 1010 10 16 N/A
8:53 pm 20:53 Clear 73 22.8 28 -2.2 19 19 SSW 13 20 29.83 1010 10 16 N/A
9:53 pm 21:53 Clear 71 21.7 28 -2.2 20 20 SW 14 22 29.85 1011 10 16 N/A
10:53 pm 22:53 Clear 70 21.1 24 -4.4 18 18 WSW 8 13 29.86 1011 10 16 N/A
11:53 pm 23:53 Clear 67 19.4 25 -3.9 20 20 N N/A 29.87 1012 10 16 N/A

Powered by AerisWeather